Starlink 35935

operational
NORAD ID: 66527 Int'l Des: 2025-265 Owner: SPXS Country: US Constellation: starlink
LEOCIRCULAR

About Starlink 35935

Description loading...

Live Position

Loading 3D Globe...

Upcoming Passes

Altitude History

Altitude vs Time

uPlot chart will show altitude changes over time

Two-Line Element Set

1 66527U 25265M 26041.11138480 .00024844 00000-0 90864-3 0 9997
2 66527 42.9958 73.8571 0000438 5.0113 355.0743 15.27604172 12893
Epoch: Feb 10, 2026 • Age: 12 hours

Current Status

Altitude 496.2 km
Velocity 7.62 km/s
Sub-Earth Point -43.06°S, 17.9°W
Launch Date Nov 19, 2025
Age 0.2 years
Type internet

Technical Details

Classification Payload
Mass 575.00 kg
Dry Mass 530.00 kg
Total Mass 575.00 kg
Length 0.30 m
Diameter 4.10 m
Span 29.00 m
Shape Box + pan
Manufacturer SPXS
Bus Type Starlink V2MO
Phase Status In Orbit
Owner/State SPXS/US

Large Constellations

Loading constellations...